EA1IOS-11 Weather Reports


time (UTC)temp
F
wind
direction
speed
knots
gust
knots
rain 1hr
in
rain 24hr
in
rain mn
in
humidity
%
barometer
mb
20260905214231 72 86 0.9 3.5 0.00 0.00 0.00 90 1021.8
20260905213106 73 117 2.6 5.2 0.00 0.00 0.00 89 1021.6
20260905212102 73 293 0.0 1.7 0.00 0.00 0.00 89 1021.5
20260905211057 73 117 0.9 1.7 0.00 0.00 0.00 89 1022.0
20260905210054 73 150 0.9 3.5 0.00 0.00 0.00 88 1022.0
20260905205049 73 316 2.6 3.5 0.00 0.00 0.00 88 1021.9
20260905204105 73 261 0.9 1.7 0.00 0.00 0.00 88 1022.7
20260905203041 73 214 1.7 7.0 0.00 0.00 0.00 89 1022.5
20260905202033 72 274 1.7 3.5 0.00 0.00 0.00 89 1022.6
20260905201029 72 94 0.9 3.5 0.00 0.00 0.00 88 1022.6
20260905200024 72 313 4.3 9.6 0.00 0.00 0.00 87 1022.3
20260905195100 72 319 3.5 5.2 0.00 0.00 0.00 87 1021.9
20260905194016 73 318 4.3 7.8 0.00 0.00 0.00 86 1021.4
20260905193132 73 100 0.0 1.7 0.00 0.00 0.00 86 1019.9
20260905192108 73 124 1.7 3.5 0.00 0.00 0.00 86 1019.7
20260905191104 73 117 1.7 3.5 0.00 0.00 0.00 86 1019.4
20260905190100 73 112 2.6 6.1 0.00 0.00 0.00 86 1019.3
20260905185115 73 110 1.7 3.5 0.00 0.00 0.00 86 1019.5
20260905184051 73 116 1.7 6.1 0.00 0.00 0.00 85 1019.6
20260905183047 73 105 3.5 7.0 0.00 0.00 0.00 85 1019.6
20260905182043 74 79 2.6 3.5 0.00 0.00 0.00 84 1019.5
20260905181039 74 115 2.6 5.2 0.00 0.00 0.00 84 1019.7
20260905180035 74 97 2.6 5.2 0.00 0.00 0.00 84 1019.5
20260905175111 74 120 0.9 3.5 0.00 0.00 0.00 84 1019.2
20260905174026 74 112 3.5 7.8 0.00 0.00 0.00 84 1019.3
20260905173022 74 129 2.6 9.6 0.00 0.00 0.00 84 1019.0
20260905172117 74 107 3.5 7.8 0.00 0.00 0.00 84 1019.1
20260905171108 75 102 3.5 7.8 0.00 0.00 0.00 84 1019.1
20260905165058 75 118 3.5 9.6 0.00 0.00 0.00 85 1019.2
20260905164114 75 126 5.2 11.3 0.00 0.00 0.00 85 1019.3
20260905163049 74 116 2.6 6.1 0.00 0.00 0.00 86 1019.3
20260905162045 74 105 2.6 7.8 0.00 0.00 0.00 85 1019.1
20260905161041 75 118 2.6 6.1 0.00 0.00 0.00 85 1019.2
20260905160037 75 107 2.6 6.1 0.00 0.00 0.00 84 1019.3
20260905155033 75 82 3.5 7.8 0.00 0.00 0.00 84 1019.3
20260905154029 76 106 3.5 7.0 0.00 0.00 0.00 83 1019.3
20260905153045 77 140 2.6 7.8 0.00 0.00 0.00 81 1019.4
20260905152020 77 89 2.6 6.1 0.00 0.00 0.00 81 1019.3
20260905151016 77 117 3.5 7.0 0.00 0.00 0.00 81 1019.4
20260905150112 76 122 2.6 6.1 0.00 0.00 0.00 81 1019.4
20260905145129 76 45 4.3 9.6 0.00 0.00 0.00 82 1019.4
20260905144104 76 93 2.6 6.1 0.00 0.00 0.00 82 1019.4
20260905143100 76 56 2.6 6.1 0.00 0.00 0.00 81 1019.5
20260905142056 76 103 3.5 7.0 0.00 0.00 0.00 83 1019.6
20260905141105 76 102 5.2 9.6 0.00 0.00 0.00 83 1019.6
20260905140041 76 66 6.1 11.3 0.00 0.00 0.00 81 1019.7
20260905135036 78 62 2.6 9.6 0.00 0.00 0.00 79 1019.9
20260905134032 78 105 2.6 7.8 0.00 0.00 0.00 78 1019.8
20260905133028 78 146 3.5 9.6 0.00 0.00 0.00 78 1019.9
20260905132024 78 91 3.5 9.6 0.00 0.00 0.00 78 1020.2
20260905131019 78 86 5.2 11.3 0.00 0.00 0.00 77 1020.2
20260905130135 78 116 3.5 9.6 0.00 0.00 0.00 77 1020.2
20260905125111 78 109 5.2 9.6 0.00 0.00 0.00 77 1020.5
20260905124107 78 105 4.3 11.3 0.00 0.00 0.00 78 1020.5
20260905123103 78 113 2.6 6.1 0.00 0.00 0.00 79 1020.7
20260905122118 76 103 3.5 7.8 0.00 0.00 0.00 82 1020.9
20260905121054 76 120 3.5 7.8 0.00 0.00 0.00 81 1021.1
20260905120050 76 115 4.3 11.3 0.00 0.00 0.00 81 1021.3
20260905115045 77 99 4.3 11.3 0.00 0.00 0.00 79 1021.4
20260905114100 78 120 4.3 17.4 0.00 0.00 0.00 77 1021.5
20260905113036 78 131 5.2 12.2 0.00 0.00 0.00 77 1021.8
20260905112032 77 103 3.5 9.6 0.00 0.00 0.00 78 1021.9
20260905111022 76 110 5.2 12.2 0.00 0.00 0.00 80 1022.2
20260905110018 75 122 5.2 19.1 0.00 0.00 0.00 81 1022.3
20260905105113 75 103 4.3 9.6 0.00 0.00 0.00 82 1022.5
20260905104108 74 87 5.2 12.2 0.00 0.00 0.00 83 1022.7
20260905103104 74 78 4.3 9.6 0.00 0.00 0.00 83 1022.7
20260905102059 74 96 5.2 12.2 0.00 0.00 0.00 84 1023.0
20260905101055 73 113 3.5 7.0 0.00 0.00 0.00 85 1023.1
20260905100131 73 89 4.3 7.0 0.00 0.00 0.00 85 1023.2
20260905095047 73 116 6.1 11.3 0.00 0.00 0.00 85 1023.1
20260905094044 73 66 2.6 5.2 0.00 0.00 0.00 86 1023.1
20260905093038 72 100 2.6 7.0 0.00 0.00 0.00 87 1023.3
20260905092034 72 101 1.7 3.5 0.00 0.00 0.00 87 1023.0
20260905091050 72 102 1.7 3.5 0.00 0.00 0.00 87 1023.3
20260905090046 72 131 4.3 9.6 0.00 0.00 0.00 87 1023.3
20260905085021 72 107 2.6 6.1 0.00 0.00 0.00 87 1023.3
20260905084017 72 87 2.6 7.0 0.00 0.00 0.00 88 1023.3
20260905083114 71 114 3.5 14.8 0.00 0.00 0.00 88 1023.2
20260905082110 71 105 2.6 6.1 0.00 0.00 0.00 88 1023.4
20260905081103 71 114 3.5 9.6 0.00 0.00 0.00 89 1023.7
20260905080057 71 113 4.3 7.8 0.00 0.00 0.00 89 1023.5
20260905075053 71 107 2.6 7.0 0.00 0.00 0.00 89 1023.6
20260905074048 71 96 0.9 3.5 0.00 0.00 0.00 89 1023.5
20260905073044 71 99 2.6 6.1 0.00 0.00 0.00 89 1023.7
20260905072040 71 106 1.7 5.2 0.00 0.00 0.00 89 1023.8
20260905071036 71 99 1.7 3.5 0.00 0.00 0.00 89 1023.8
20260905070052 71 111 0.9 3.5 0.00 0.00 0.00 89 1023.5
20260905065028 71 120 1.7 3.5 0.00 0.00 0.00 90 1023.5
20260905064044 70 91 2.6 7.0 0.00 0.00 0.00 90 1023.1
20260905063040 70 100 0.9 3.5 0.00 0.00 0.00 91 1023.0
20260905062016 70 116 1.7 3.5 0.00 0.00 0.00 91 1022.8
20260905061112 70 107 0.9 3.5 0.00 0.00 0.00 91 1022.9
20260905060128 70 85 1.7 3.5 0.00 0.00 0.00 91 1022.9
20260905055104 70 105 0.9 3.5 0.00 0.00 0.00 91 1023.0
20260905054100 70 90 1.7 3.5 0.00 0.00 0.00 90 1022.8
20260905053056 71 117 1.7 3.5 0.00 0.00 0.00 90 1022.6
20260905052051 71 110 1.7 3.5 0.00 0.00 0.00 90 1022.7
20260905051043 70 96 1.7 3.5 0.00 0.00 0.00 90 1022.9
20260905050038 70 97 0.9 1.7 0.00 0.00 0.00 90 1022.8
20260905045034 70 110 0.9 1.7 0.00 0.00 0.00 90 1022.9
20260905044030 70 105 0.9 1.7 0.00 0.00 0.00 90 1023.0
20260905043026 70 97 0.9 1.7 0.00 0.00 0.00 90 1022.9
20260905042022 70 104 1.7 3.5 0.00 0.00 0.00 90 1023.2
20260905041058 70 68 1.7 3.5 0.00 0.00 0.00 90 1023.0
20260905040134 70 103 1.7 3.5 0.00 0.00 0.00 90 1023.0
20260905035110 71 103 0.9 1.7 0.00 0.00 0.00 90 1023.0
20260905034106 70 98 0.9 3.5 0.00 0.00 0.00 90 1023.1
20260905033102 70 113 1.7 3.5 0.00 0.00 0.00 90 1023.1
20260905032057 71 104 0.9 3.5 0.00 0.00 0.00 90 1023.2
20260905031053 71 102 2.6 3.5 0.00 0.00 0.00 90 1023.2
20260905030109 71 120 1.7 3.5 0.00 0.00 0.00 90 1023.1
20260905025045 71 113 0.9 1.7 0.00 0.00 0.00 90 1023.1
20260905024041 71 116 1.7 3.5 0.00 0.00 0.00 90 1023.2
20260905023037 71 106 1.7 3.5 0.00 0.00 0.00 90 1023.2
20260905022032 71 101 0.9 1.7 0.00 0.00 0.00 90 1023.3
20260905021022 71 94 0.9 1.7 0.00 0.00 0.00 90 1023.3
20260905020038 71 101 0.9 3.5 0.00 0.00 0.00 90 1023.3
20260905015114 71 90 0.0 1.7 0.00 0.00 0.00 90 1023.7
20260905014110 71 68 0.0 1.7 0.00 0.00 0.00 90 1023.8
20260905013106 71 113 0.9 1.7 0.00 0.00 0.00 89 1023.8
20260905012101 71 81 0.9 1.7 0.00 0.00 0.00 89 1023.8
20260905011057 71 109 1.7 1.7 0.00 0.00 0.00 89 1023.9
20260905010053 71 106 1.7 1.7 0.00 0.00 0.00 89 1024.1
20260905005109 71 113 0.9 3.5 0.00 0.00 0.00 90 1024.2
20260905004045 71 135 0.9 1.7 0.00 0.00 0.00 90 1024.2
20260905003041 71 105 0.9 1.7 0.00 0.00 0.00 89 1024.1
20260905002037 71 90 0.9 1.7 0.00 0.00 0.00 89 1024.1
20260905001053 71 110 0.9 1.7 0.00 0.00 0.00 89 1024.0
20260905000029 71 99 0.9 1.7 0.00 0.00 0.00 89 1024.0
20260904235024 71 116 1.7 1.7 0.00 0.00 0.00 89 1024.0
20260904234020 71 113 0.9 1.7 0.00 0.00 0.00 89 1024.0
20260904233016 71 122 0.9 1.7 0.00 0.00 0.00 89 1024.1
20260904232112 71 96 0.9 1.7 0.00 0.00 0.00 89 1024.0
20260904231107 71 93 0.9 1.7 0.00 0.00 0.00 89 1023.9
20260904230053 71 95 0.9 1.7 0.00 0.00 0.00 88 1024.0
20260904225048 71 75 0.0 1.7 0.00 0.00 0.00 88 1024.1
20260904224044 71 84 0.0 1.7 0.00 0.00 0.00 88 1024.1
20260904223040 71 135 0.0 1.7 0.00 0.00 0.00 88 1024.2
20260904222036 71 94 0.9 1.7 0.00 0.00 0.00 88 1024.2
20260904221031 71 89 0.9 3.5 0.00 0.00 0.00 87 1024.3
20260904220047 72 81 0.9 3.5 0.00 0.00 0.00 87 1024.4
20260904215022 72 72 0.9 1.7 0.00 0.00 0.00 87 1024.6